Meteo Giornale » Osservazioni meteo Gran Bretagna » Tees-Side

ore: 14:50 - Osservazioni Meteo Tees-Side
Lat. 54° 31' N Lon. 1° 25' W Alt. 37 metri s.l.m.

coperto_pioggia Europe/London

10 °C

Pioggia Debole

Temp. 24 Ore

9 °C

13 °C

Sud/Sud-Ovest

22.2 Km/h

Dew point 7 °C

Umidità 81 %

Visibilità  8 Km

Il sole sorge alle ore 05:39

Il sole tramonta alle ore 20:28

Data e Ora Cielo e Fenomeni T °C DP °C Um. % Pres. hPa Vis. km Vento km/h
Oggi h: 14:50 coperto_pioggia Pioggia Debole 10 7 81 1009 8 S/SO 22.2
Oggi h: 14:20 coperto_pioggia Pioggia Debole 11 7 76 1009 8 S/SO 22.2
Oggi h: 13:50 coperto_pioggia Pioggia Debole 11 5 66 1009 8 SO 25.9
Oggi h: 13:20 nuvoloso Nuvoloso 12 5 62 1009 10 SO 22.2
Oggi h: 12:50 nuvoloso Nuvoloso 13 4 54 1009 10 O/SO 25.9
Oggi h: 12:20 nuvoloso Nuvoloso 12 4 57 1010 10 O/SO 18.5
Oggi h: 11:50 nuvoloso Nuvoloso 12 4 57 1010 10 O/SO 22.2
Oggi h: 11:20 nuvoloso Nuvoloso 12 3 54 1010 10 O/SO 25.9
Oggi h: 10:50 poco_nuvoloso Poco Nuvoloso 12 4 57 1010 10 O/SO 25.9
Oggi h: 10:20 poco_nuvoloso Poco Nuvoloso 12 4 57 1010 10 O/SO 25.9
Oggi h: 09:50 poco_nuvoloso Poco Nuvoloso 11 5 66 1010 10 O/SO 14.8
Oggi h: 09:20 nuvoloso Nuvoloso 11 5 66 1010 10 SO 16.7
Oggi h: 08:50 poco_nuvoloso Poco Nuvoloso 11 5 66 1010 10 S 7.4
Oggi h: 08:20 poco_nuvoloso Poco Nuvoloso 10 4 66 1010 10 SO 11.1
Oggi h: 07:50 poco_nuvoloso Poco Nuvoloso 10 4 66 1009 10 O/SO 18.5
Oggi h: 07:20 poco_nuvoloso Poco Nuvoloso 9 4 70 1009 10 O/SO 25.9
Oggi h: 06:50 nuvoloso Nuvoloso 9 4 70 1009 10 O/SO 22.2
Oggi h: 06:20 nuvoloso Nuvoloso 10 4 66 1009 10 O/SO 13
Oggi h: 05:50 nuvoloso Nuvoloso 10 4 66 1009 10 O/SO 9.3
Ieri h: 21:50 nuvoloso Nuvoloso 12 8 76 1007 10 O/SO 29.6
Ieri h: 21:20 molto_nuvoloso Molto Nuvoloso 12 8 76 1007 10 S 20.3
Ieri h: 20:50 molto_nuvoloso Molto Nuvoloso 11 8 81 1007 10 S/SO 27.8
Ieri h: 20:20 molto_nuvoloso Molto Nuvoloso 11 8 81 1007 10 S/SO 33.3
Ieri h: 19:50 molto_nuvoloso Rovescio nelle Vicinanze 11 7 76 1007 9 S/SO 31.5
Ieri h: 19:20 molto_nuvoloso Molto Nuvoloso 11 7 76 1007 10 S/SO 29.6
Ieri h: 18:20 molto_nuvoloso Molto Nuvoloso 11 7 76 1008 10 S/SO 29.6
Ieri h: 17:50 molto_nuvoloso Molto Nuvoloso 12 5 62 1009 10 S/SO 29.6
Ieri h: 17:20 nuvoloso Nuvoloso 13 5 58 1009 10 S/SO 27.8
Ieri h: 16:50 nuvoloso Nuvoloso 12 5 62 1009 10 SO 37
Ieri h: 16:20 poco_nuvoloso Poco Nuvoloso 13 5 58 1009 10 SO 31.5
Ieri h: 15:50 poco_nuvoloso Poco Nuvoloso 12 4 57 1010 10 SO 33.3